Location: Fornova de Taro
(44.7000°N, 10.1000°E)
Time: 23:21:29
(UTC+00:00)

Cosmos 1703 - Pass Details

Date: 26 May 2022
Orbit: 518 x 535 km, 82.5° (Epoch: 02 July)

Event Time Altitude Azimuth Distance (km) Brightness Sun altitude
Exits shadow 01:36:48 22° 163° (SSE) 1,200 4.7 -16.8°
Maximum altitude 01:39:06 53° 94° (E) 667 3.9 -16.6°
Drops below altitude 10° 01:42:56 10° 18° (NNE) 1,796 7.1 -16.2°
Sets 01:45:08 0° 14° (NNE) 2,689 8.2 -16.0°
